Los Angeles City Businesses
CITY OF INDUSTRY

Jurisdiction: Los Angeles
Source: City of Los Angeles, Office of Finance

This dataset includes 509 thousand business entities registered with Los Angeles City, Office of Finance. Each business is registered with location account number, legal business name, doing business as (DBA) name, location, mailing address, industry code, business start date, etc.

CITY OF INDUSTRY · Search Result

Entity Name Office Address Start Date
KEVA AUTO RENTALS LLC 159 S 7th Avenue, City of Industry, CA 91746-3212 2018-08-21
DESIGNER CABINETS AND MORE LLC 801 Baldwin Park Blvd, City of Industry, CA 91746-1205 2018-07-01
HEAVENLY BAKERY, LLC 15244 Valley Blvd, City of Industry, CA 91746-3334 2018-06-30
WHITE RABBIT TRUCK · LUCKY RABBIT HOLDING LLC 738 Epperson Drive, City of Industry, CA 91748-1336 2018-06-15
W2W BUILDERS CA LLC 17411 Gale Avenue, City of Industry, CA 91748-1515 2018-06-11
TOPCOAT SERVICES USA LLC 13932 Valley Blvd Suite #a, City of Industry, CA 91746-2500 2018-04-02
RETROLOCK CORPORATION 17915 Railroad Street, City of Industry, CA 91748-1113 2018-02-15
HONG JI CONSTRUCTION INC 14813 Proctor Avenue, City of Industry, CA 91746-3205 2018-01-22
SUNDAY NIGHT DINNER · CROSSROADS CAFE INC 13191 Crossroads Parkways N Suite #195, City of Industry, CA 91746-3433 2018-01-01
JAMES MORALES 140 Willow Avenue, City of Industry, CA 91746-2038 2018-01-01
HUOT INVESTMENT LLC 15619 E Valley Blvd, City of Industry, CA 91744-3945 2018-01-01
SERVITEK ELECTRIC, INC 618 Brea Canyon Road Suite #j, City of Industry, CA 91789-3022 2017-11-02
BOEN US CONSULTING GROUP INC 17115 Gale Avenue, City of Industry, CA 91745-1810 2017-09-22 ~ 2017-09-22
UNITED THAI NATURAL ELEMENTS LLC 1325 Bixby Drive, City of Industry, CA 91745-2402 2017-09-18
MR. CHILE, INC. 14747 Clark Avenue, City of Industry, CA 91745-1307 2017-08-14
KELLWOOD APPAREL LLC 13071 Temple Avenue, City of Industry, CA 91746-1418 2017-06-30
ALL GREEN INSULATION,INC 14935 Clark Avenue, City of Industry, CA 91745-1312 2017-06-25
JIS BROTHERS CONSTRUCTION 17921 Rowland Street, City of Industry, CA 91748-1124 2017-06-15
GC LANDSCAPE & GENERAL CONSTRUCTION 15824 Amar Road, City of Industry, CA 91744-2106 2017-05-18
2000 CARPET · DONG HAE SEA INC 1135 Centre Drive Suite #d, City of Industry, CA 91789-2802 2017-04-25 ~ 2017-12-31
SOCIETY OF HISPANIC PROFESSIONAL ENGINEERS 13181 Crossroads Parkways N Suite #450, City of Industry, CA 91746-3501 2016-11-03
ESAFETY SUPPLIES INC 13674 Valley Blvd, City of Industry, CA 91746-2516 2016-09-01
CORALIN LLC 450 Baldwin Park Blvd, City of Industry, CA 91746-1407 2016-08-05
A.T.E. SUPPLIES, INC 618 Brea Canyon Road Suite #i, City of Industry, CA 91789-3022 2016-08-01
DRAGON BUS & TOUR LINE, LLC 14644 Valley Blvd, City of Industry, CA 91746-3215 2016-08-01
CONSOLIDATED ELECTRICAL DISTRIBUTORS INC 15139 Don Julian Road, City of Industry, CA 91746-3304 2016-06-27
JMD · JM DIAZ INC 18645 Gale Avenue Suite #212, City of Industry, CA 91748-1363 2016-04-06
ASA PRODUCTS INC 532 Coralridge Place, City of Industry, CA 91746-3000 2016-02-20
NH ENVIROMENTAL INC 229 N California Avenue, City of Industry, CA 91744-4324 2016-02-19
LUZ A TOLEDO 443 Vineland Avenue, City of Industry, CA 91746-1909 2016-02-12
FAIRSTONE INC 14755 Salt Lake Avenue, City of Industry, CA 91746-3114 2016-01-28
RVD CONSTRUCTION INC 253 Vineland Avenue, City of Industry, CA 91746-2319 2015-10-26
SWEET SUITE DESSERT TRUCK INC 235 Turnbull Canyon Road, City of Industry, CA 91745-1008 2015-10-23
BRIGHT HIGH WIRELESS INC 15429 Proctor Avenue, City of Industry, CA 91745-1025 2015-09-21
MRC SMART TECHNOLOGY SOLUTIONS/A XEROX COMPANY · MR COPY INC 17890 Castleton Street Suite #138, City of Industry, CA 91748-6761 2015-08-24
GESC · AMERICAN GREENERGY COMPANY 17890 Castleton Street #112, City of Industry, CA 91748-1756 2015-08-18
TOOLOTS, INC. 1136 Samuelson Street, City of Industry, CA 91748-1221 2015-08-18 ~ 2015-08-18
GENERAL INSULATION COMPANY INC 14971 Salt Lake Avenue, City of Industry, CA 91746-3115 2015-03-01
NEW YORK HUACHENG HOUSES BROKER INC · NEWYORK HUACHENG HOUSES BROKER INC 780 Epperson Drive, City of Industry, CA 91748-1336 2015-01-01
SAMMY ASHOURI 17798 Rowland Street Unit #a, City of Industry, CA 91748-1150 2015-01-01 ~ 2016-12-31
VOGANI LLC 18150 Rowland Street, City of Industry, CA 91748-1224 2014-12-01
LEE & LI IMPORT & EXPORT 13060 Temple Avenue, City of Industry, CA 91746-1400 2014-10-23
NEWEGG BUSINESS INC 17708 Rowland Street, City of Industry, CA 91748-1119 2014-10-15
CAMINO REAL CAREER SCHOOL 13674 Valley Blvd, City of Industry, CA 91746-2516 2014-10-03
L.A. TRUCKING 17635 Rowland Street Unit #b, City of Industry, CA 91748-1139 2014-10-01
NEW GEO APW INC 15340 Proctor Avenue, City of Industry, CA 91745-1023 2014-09-15
HALBERT BROTHERS INC 17400 Chestnut Street, City of Industry, CA 91748-1013 2014-08-29
DIRECT PAINTING & DECORATING INC 17400 Chestnut Street, City of Industry, CA 91748-1013 2014-07-01
CUT PAK CO LLC 15342 Valley Blvd Suite #a, City of Industry, CA 91746-3360 2014-06-13
SSY CONSTRUCTION INC 1210 Fullerton Road, City of Industry, CA 91748-1236 2014-06-05 ~ 2014-06-07
B & K · B & K ELECTRIC WHOLESALE 1225 S Johnson Drive, City of Industry, CA 91745-2409 2014-03-14
SCORPION PROCESS PIPING · MANUEL C HAVARNA 112 S 6th Avenue, City of Industry, CA 91746-2913 2014-03-10
GERI · GLOBAL EMERGENCY RESPONSE INDUSTRIES 20974 Currier Road, City of Industry, CA 91789-3019 2014-03-03 ~ 2017-12-31
HIMI INTERNATIONAL INC 17011 Green Drive, City of Industry, CA 91745-1800 2014-02-18
RICHARD SCHNEIDER 918 Aileron Avenue, City of Industry, CA 91744-3008 2014-02-18 ~ 2014-03-01
ADVANCED WIRE GROUP CORP 17300 Railroad Street Unit #a, City of Industry, CA 91748-1044 2013-09-01 ~ 2013-12-31
CARRIER TRANSICOLD OF SOUTHERN CALIFORNIA · REEFCO LLC 1015 S Azusa Avenue, City of Industry, CA 91748-1030 2013-08-01
CONSTRUCTION MANAGEMENT SOLUTIONS INC. · JAMES HEILMAN 18261 Gale Avenue Suite #b, City of Industry, CA 91748-1259 2013-06-12 ~ 2016-12-31
NET FORCE 15421 E Gale Avenue Unit #90083, City of Industry, CA 91715-3804 2013-05-18
UNI-GLORY DEVELOPMENT INC 510 Coralridge Place #103, City of Industry, CA 91746-3031 2013-02-28
CJ BY COOKIE LLC 16425 Gale Avenue, City of Industry, CA 91745-1711 2013-01-15 ~ 2016-12-31
J.E.L ROLL OFF & RECYCLING INC 13940 Valley Blvd, City of Industry, CA 91746-2551 2013-01-15 ~ 2015-02-27
SOHO KITCHEN STUDIO INC 17883 Colima Road Suite #b, City of Industry, CA 91748-1854 2013-01-07 ~ 2013-08-01
COZZIA USA LLC 14515 Don Julian Road, City of Industry, CA 91746-3104 2012-12-13 ~ 2015-01-01
EL BURRITO MEXICAN FOOD PRODUCTS CORPORATION 14944 Don Julian Road, City of Industry, CA 91746-3111 2012-10-19
CENTRAL BLOWER CO 211 S 7th Avenue, City of Industry, CA 91746-3214 2012-09-18
BENTLEY PRINCE STREET INC 14641 Don Julian Road, City of Industry, CA 91746-3106 2012-08-17
BOBA NI TACO · MP VOLCANO INC 235 Turnbull Canyon Road, City of Industry, CA 91745-1008 2012-08-17
HOUSE ON THE HILL INC 17890 Castleton Street #265, City of Industry, CA 91748-5797 2012-07-26
EASTERN BROADCASTING AMERICA CORPORATION 18430 San Jose Avenue, City of Industry, CA 91748-1263 2012-07-25 ~ 2012-08-02
PABLO CONTRERAS 15433 Valley Blvd, City of Industry, CA 91746-3340 2012-05-15 ~ 2012-12-31
ASTROPHYSICS INC 21481 Ferrero, City of Industry, CA 91789-5233 2012-04-27
CALIFORNIA ACCESS SCAFFOLD LLC 331 Vineland Avenue, City of Industry, CA 91746-2321 2012-03-27
LOBOLIN ASSOCIATES INC 17595 Almahurst Street #206, City of Industry, CA 91748-1792 2012-01-26 ~ 2014-12-31
RH DESIGNS CORP 807 Lawson Street #807, City of Industry, CA 91748-1104 2012-01-17
WEST ENERGY OIL TRANSPORT INC 15454 Valley Blvd, City of Industry, CA 91746-3325 2011-12-02 ~ 2013-01-01
RUSH TRUCK CENTER WHITTIER · RUSH TRUCK CENTERS OF CALIFORNIA INC 2450 Kella Avenue, City of Industry, CA 90601-1530 2011-12-01
ANGIE PARK / JAMES LEE 13191 Crossroads Parkways N Suite #195, City of Industry, CA 91746-3433 2011-10-05 ~ 2014-12-01
THERMAL CONCEPTS INC 15340 Valley Blvd, City of Industry, CA 91746-3335 2011-06-07
RUBATO INTERNATIONAL CORPORATION 15046 Nelson Avenue #24, City of Industry, CA 91744-4304 2011-03-01 ~ 2012-12-31
LA FONT · DANIEL BOBBE/GREGORY KATZ JR/JONATHAN PERRY/HARLOW RODRIGUEZ 15342 Valley Blvd Suite #a, City of Industry, CA 91746-3360 2011-01-01
KINGSTON ENGINEERING INC 17635 Rowland Street #a, City of Industry, CA 91748-1139 2010-08-31 ~ 2011-12-31
EXCEL BUILDERS AND INTERIORS INC 18233 Railroad Street, City of Industry, CA 91748-1217 2010-08-26 ~ 2011-12-31
NELSON G YANGA JR 14247 Don Julian Road, City of Industry, CA 91746-3038 2010-05-07 ~ 2013-12-31
ELECTRIC AND DIGITAL SERVICE INC 18971 Arenth Avenue, City of Industry, CA 91748-1305 2010-03-01
SILVIA CONCEPCION ORTEZ VILLATORO 17580 Rowland Street Suite #a236, City of Industry, CA 91748-1114 2010-01-15 ~ 2011-12-01
BAY INSULATION SUPPLY OF L.A. | INSULATION SUPPLY OF L.A. · CWCI INSULATION OF LA INC 18825 Railroad Street, City of Industry, CA 91748-1320 2010-01-01
SODEXO AMERICA LLC 15051 Don Julian Road, City of Industry, CA 91746-3302 2010-01-01 ~ 2012-05-11
COASTLINE IMPORTS 1041 Lawson Street, City of Industry, CA 91748-1135 2010-01-01 ~ 2016-10-01
DEAN FOODS OF SOUTHERN CALIFORNIA 17851 Railroad Street, City of Industry, CA 91748-1118 2009-10-11 ~ 2012-12-31
PALMER SNYDER FURNITURE COMPANY INC 16801 Gale Avenue Suite #b, City of Industry, CA 91745-1820 2009-09-14 ~ 2010-12-31
INDUSTRY PLAZA INC 15229 Gale Avenue, City of Industry, CA 91745-1507 2009-08-08
VARTANYAN ENTERPRISES INC 1600 S Azusa Avenue, City of Industry, CA 91748-1674 2009-06-09 ~ 2009-12-31
ANIME PLAYGROUND · JOHN WOODROW EARICKSON 19649 San Jose Avenue, City of Industry, CA 91748-1410 2009-06-01
TING FONG WONG 17800 Castleton Street #550, City of Industry, CA 91748-6718 2009-04-16 ~ 2010-12-31
VERDI MARKETING INC 18830 San Jose Avenue, City of Industry, CA 91748-1325 2009-03-17
PALACE CONSTRUCTION INC 104 S 6th Avenue, City of Industry, CA 91746-2913 2009-02-06 ~ 2009-10-06
EXPRESS TRANSPORT SOLUTIONS · TATUM LOGISTICS INC 13285 Temple Avenue, City of Industry, CA 91746-1519 2009-01-21
OCATEL INC 15253 Don Julian Road, City of Industry, CA 91745-1002 2009-01-01 ~ 2013-12-31
SERVITEK SOLUTIONS LLC 618 Brea Canyon Road Unit #j, City of Industry, CA 91789-3022 2008-11-08